WetterOnline ( https://www.wetteronline.de )

Wetter aktuell Lößnitz

Aktuelles Wetter: Carlsfeld (899m)

6-stündlich | Neueste Meldungen
Ortszeit Temperatur Wetter
Sa, 25.05. 20:00 11.7° C wolkig
Sa, 25.05. 14:00 15.6° C bewölkt
Sa, 25.05. 8:00 10.8° C leicht bewölkt
Sa, 25.05. 2:00 9.6° C Nebel
Fr, 24.05. 20:00 12.1° C wolkig
Fr, 24.05. 14:00 13.1° C Nebel
Fr, 24.05. 8:00 12.6° C bedeckt
Fr, 24.05. 2:00 9.3° C wolkenlos
Ortszeit Temperatur Wetter
Sa, 25.05. 22:30 8.9° C Nebel
Sa, 25.05. 22:20 8.9° C Dunst
Sa, 25.05. 22:10 9.1° C Dunst
Sa, 25.05. 22:00 9.5° C Nebel
Sa, 25.05. 21:50 9.5° C Dunst
Sa, 25.05. 21:40 9.7° C Dunst
Sa, 25.05. 21:30 10.0° C Nebel
Sa, 25.05. 21:00 10.6° C Nebel
Sa, 25.05. 20:30 11.1° C Nebel
Sa, 25.05. 20:00 11.7° C wolkig
Sa, 25.05. 19:30 12.9° C bedeckt
Ortszeit Relative Feuchte Sichtweite
Sa, 25.05. 20:00 88% 50 km
Sa, 25.05. 14:00 59% 45 km
Sa, 25.05. 8:00 94% 20 km
Sa, 25.05. 2:00 99% 100 m
Fr, 24.05. 20:00 90% 50 km
Fr, 24.05. 14:00 88% 45 km
Fr, 24.05. 8:00 80% 50 km
Fr, 24.05. 2:00 88% 40 km
Ortszeit Relative Feuchte Sichtweite
Sa, 25.05. 22:30 96% 1.2 km
Sa, 25.05. 22:20 96% -
Sa, 25.05. 22:10 97% -
Sa, 25.05. 22:00 96% 2.0 km
Sa, 25.05. 21:50 96% -
Sa, 25.05. 21:40 97% -
Sa, 25.05. 21:30 96% 0.3 km
Sa, 25.05. 21:00 96% 12 km
Sa, 25.05. 20:30 95% 15 km
Sa, 25.05. 20:00 88% 50 km
Sa, 25.05. 19:30 84% 60 km
Ortszeit Niederschlagsmenge Niederschlagsart
Sa, 25.05. 20:00 3 l/m2 in 12 Std. Regen
Sa, 25.05. 14:00 0.1 l/m2 in 6 Std. Regen
Sa, 25.05. 8:00 0.1 l/m2 in 12 Std. -
Sa, 25.05. 2:00 0.1 l/m2 in 6 Std. -
Fr, 24.05. 20:00 10 l/m2 in 12 Std. Regen
Fr, 24.05. 14:00 8 l/m2 in 6 Std. Regen
Fr, 24.05. 8:00 0.0 l/m2 in 12 Std. -
Fr, 24.05. 2:00 0.0 l/m2 in 6 Std. -
Ortszeit Niederschlagsmenge Niederschlagsart
Sa, 25.05. 22:30 0.0 l/m2 in 30 Min -
Sa, 25.05. 22:20 keine Meldung -
Sa, 25.05. 22:10 keine Meldung -
Sa, 25.05. 22:00 0.0 l/m2 in 1 Std. -
Sa, 25.05. 21:50 keine Meldung -
Sa, 25.05. 21:40 keine Meldung -
Sa, 25.05. 21:30 0.0 l/m2 in 30 Min -
Sa, 25.05. 21:00 0.0 l/m2 in 1 Std. -
Sa, 25.05. 20:30 0.0 l/m2 in 30 Min -
Sa, 25.05. 20:00 0.0 l/m2 in 1 Std. Regen
Sa, 25.05. 19:30 0.0 l/m2 in 30 Min -
Ortszeit Stärke Spitze Richtung
km/h Bft. km/h Grad Sektor
Sa, 25.05. 20:00 0 0 25 - -
Sa, 25.05. 14:00 4 1 22 140° SO
Sa, 25.05. 8:00 6 1 17 220° SW
Sa, 25.05. 2:00 4 1 14 190° S
Fr, 24.05. 20:00 4 1 22 160° S
Fr, 24.05. 14:00 11 2 32 160° S
Fr, 24.05. 8:00 2 1 15 90° O
Fr, 24.05. 2:00 7 2 13 150° SO
Ortszeit Stärke Spitze Richtung
km/h Bft. km/h Grad Sektor
Sa, 25.05. 22:30 4 1 7 190° S
Sa, 25.05. 22:20 4 1 - 190° S
Sa, 25.05. 22:10 4 1 - 190° S
Sa, 25.05. 22:00 4 1 4 200° S
Sa, 25.05. 21:50 4 1 - 200° S
Sa, 25.05. 21:40 2 1 - 220° SW
Sa, 25.05. 21:30 2 1 6 190° S
Sa, 25.05. 21:00 0 0 7 - -
Sa, 25.05. 20:30 0 0 7 - -
Sa, 25.05. 20:00 0 0 4 - -
Sa, 25.05. 19:30 0 0 4 - -
Ortszeit Untergrenze Bedeckung Gattung
total tief tief mittel hoch
Sa, 25.05. 20:00 6300 m 7/8 5/8 - - -
Sa, 25.05. 14:00 1020 m 8/8 7/8 - - -
Sa, 25.05. 8:00 150 m 3/8 3/8 - - -
Sa, 25.05. 2:00 <30 m 8/8 0/8 - - -
Fr, 24.05. 20:00 420 m 7/8 4/8 - - -
Fr, 24.05. 14:00 300 m 8/8 1/8 - - -
Fr, 24.05. 8:00 2700 m 8/8 8/8 - - -
Fr, 24.05. 2:00 - 0/8 0/8 - - -
Ortszeit Bedeckungsgrad in Achtel und Wolkenuntergrenze
Sa, 25.05. 22:30 8(6900m)
Sa, 25.05. 22:20 8(6900m)
Sa, 25.05. 22:10 8
Sa, 25.05. 22:00 8(7200m) 8(8700m)
Sa, 25.05. 21:50 8(7200m) 8(8700m)
Sa, 25.05. 21:40 8
Sa, 25.05. 21:30 2(<30m) 8(7500m)
Sa, 25.05. 21:00 1(6600m) 5(8100m)
Sa, 25.05. 20:30 1(120m) 3(2100m)
Sa, 25.05. 20:00 5(6300m) 7(7500m)
Sa, 25.05. 19:30 3(5100m) 7(6000m) 8(6600m)
Ortszeit Stationsdruck (hPa) Tendenz (hPa in 3 Std.)
Sa, 25.05. 20:00 915 - 0,4
Sa, 25.05. 14:00 915 - 0,3
Sa, 25.05. 8:00 915 + 0,6
Sa, 25.05. 2:00 915 0,0
Fr, 24.05. 20:00 914 - 0,3
Fr, 24.05. 14:00 915 - 0,1
Fr, 24.05. 8:00 915 - 0,1
Fr, 24.05. 2:00 915 - 0,1
Ortszeit Stationsdruck (hPa) Tendenz (hPa in 3 Std.)
Sa, 25.05. 22:30 916 + 1,2
Sa, 25.05. 22:20 916 keine Meldung
Sa, 25.05. 22:10 916 keine Meldung
Sa, 25.05. 22:00 916 + 0,9
Sa, 25.05. 21:50 916 keine Meldung
Sa, 25.05. 21:40 916 keine Meldung
Sa, 25.05. 21:30 916 + 0,2
Sa, 25.05. 21:00 915 - 0,2
Sa, 25.05. 20:30 916 - 0,1
Sa, 25.05. 20:00 915 - 0,4
Sa, 25.05. 19:30 915 - 1,0
Ortszeit Schneehöhe (cm)
Sa, 25.05. 20:00 0
Sa, 25.05. 14:00 0
Sa, 25.05. 8:00 0
Sa, 25.05. 2:00 0
Fr, 24.05. 20:00 0
Fr, 24.05. 14:00 0
Fr, 24.05. 8:00 0
Fr, 24.05. 2:00 0
Ortszeit Schneehöhe (cm)
Sa, 25.05. 22:30 0
Sa, 25.05. 22:20 0
Sa, 25.05. 22:10 -
Sa, 25.05. 22:00 0
Sa, 25.05. 21:50 0
Sa, 25.05. 21:40 -
Sa, 25.05. 21:30 0
Sa, 25.05. 21:00 0
Sa, 25.05. 20:30 0
Sa, 25.05. 20:00 0
Sa, 25.05. 19:30 0
Link zu dieser Seite / Seite empfehlen

Das Wetter in ...